DMSP 5D-2 F11 DEB, 29071

Orbit data source: Space-Track

DMSP 5D-2 F11 DEB, 29071 is space debris in SSO originally from a launch on Thu, 28 Nov 1991 UTC launched from the Air Force Western Test Range (AFWTR). Debris objects in space refer to the collection of defunct objects orbiting the Earth. Examples of debris include non-operational satellites, rocket bodies, and fragments generated from explosions, collisions, or faulty payload assembly.

Loading next visibility...
Identifier
29071, 1991-082BS
Orbit
SSO
Country
Flag of USUS
Related business
Manufacturer
Unknown
Mission
Spacecraft
Bus & Motor
Unknown
Mass
Unknown
Launch date (UTC)
1991-11-28 (34 years ago)
Launch vehicle
Unknown
Launch site
Air Force Western Test Range (AFWTR)
Object type
Payload
Rocket body
Debris
Shape & HBR
Unknown shape, 0.1 m
Radar Cross Section
Small (<0.1 m²)

Expand to show TLE details & history
Last TLE update: 3 days ago

TLE from 3 days ago
0 DMSP 5D-2 F11 DEB
1 29071U 91082BS  25346.43078449  .00008819  00000-0  29854-2 0  9994
2 29071  98.9576  47.1840 0072270  17.7515 342.6170 14.35553010104840
Epoch: 2025-12-12T10:20Z
TLE epoch observation values (Epoch: 2025-12-12T10:20:19.779Z)
Latitude
-0.00003°
Longitude
170.72908°
Altitude
726.858 km
Speed
7.518 km/s
True Right ascension
03h 08m 44s
True Declination
0° 00' 00"
Sunlit
Object was in full shadow at epoch
Visualization orbit readout
Latitude
Unknown
Longitude
Unknown
Altitude
Unknown
Speed
Unknown
Apparent Right ascension
Unknown
Apparent Declination
Unknown
Sunlit
N/A
Visualization observer readout
Local Sidereal Time
13:18:46
Azimuth
Unknown
Elevation
Unknown
Doppler factor
Unknown
Orbital elements
Apogee altitude
822.041 km
Perigee altitude
718.717 km
Semi-major axis
7,148.516 km
Eccentricity
0.00723
Inclination
98.9576°
RAAN
47.184°
Arg. of periapsis
17.7515°
True anomaly
342.36743°
Mean anomaly
342.617°
Eccentric anomaly
342.49243°
Mean motion
3.59103 °/min
Orbital period
100.25 mins
BSTAR
0.0029854
Loading maneuver chart data...
Computing Atmospheric mass density...

Documentation

Showing up to 5 results
|